Temperature
9 9 9 8 8 8 8 8 8 8 7 7 7 7 7 7 7 7 7 7 7 7 8 7 7 7 7 7 7 7 7 8 8 8 8 8 8 8 8 8 8 8 8
9 9 9 9 8 8 8 8 8 8 7 7 7 7 7 7 7 7 7 8 8 8 8 8 8 7 7 7 7 7 7 7 7 7 7 7 8 8 8 8 8 8 8
9 9 9 9 9 8 8 8 8 7 7 7 7 7 7 7 7 7 8 8 8 8 7 7 7 7 7 7 6 6 7 7 7 7 7 7 7 7 7 8 8 8 8
9 9 9 9 8 8 8 8 8 7 7 7 7 7 7 7 8 8 8 8 7 7 7 7 7 7 7 7 6 6 6 6 6 6 6 6 6 6 7 7 7 8 8
9 9 9 8 8 8 8 8 7 7 7 7 7 7 7 8 8 8 8 7 7 7 7 7 7 7 7 7 6 6 6 6 6 6 6 5 6 6 6 6 6 7 7
9 9 9 8 8 8 8 7 7 7 7 7 7 7 8 8 8 8 8 7 7 7 7 7 6 6 6 6 6 6 6 6 5 5 5 5 5 5 5 5 6 6 6
9 9 8 8 8 8 7 7 7 7 7 6 7 7 8 7 8 7 7 7 7 6 6 6 6 6 6 6 6 6 6 6 5 5 5 5 4 4 5 5 5 5 5
9 8 8 8 8 7 7 7 7 6 6 6 5 5 5 6 5 6 6 6 6 6 5 5 5 5 5 5 5 5 5 5 5 5 4 4 4 4 4 4 5 5 5
8 8 8 8 7 7 7 6 6 6 6 5 5 4 3 3 3 4 4 5 5 4 4 5 5 5 5 5 5 5 5 4 4 4 4 3 3 3 3 4 4 4 5
8 8 7 7 7 7 6 6 6 5 5 5 4 4 3 2 2 2 3 3 3 4 4 4 4 4 4 4 4 4 4 4 3 3 3 3 2 2 3 3 3 4 4
8 7 7 7 6 6 6 5 5 5 5 4 4 4 3 3 2 1 1 2 3 3 3 3 3 3 3 3 3 3 3 2 2 2 1 1 1 2 2 2 3 3 3
8 7 7 6 6 6 5 5 5 4 4 4 4 3 3 2 1 0 -0 0 1 2 2 2 2 2 2 2 2 1 1 1 1 1 1 0 0 1 1 1 1 2 2
7 7 6 6 6 5 5 5 4 4 4 4 3 3 2 2 1 0 -1 -1 -1 -0 0 1 1 1 1 1 1 1 0 0 -0 -0 -0 -1 -1 -0 -0 -0 0 1 1
7 6 6 6 5 5 5 4 4 4 3 3 3 2 2 1 1 -0 -1 -2 -2 -2 -2 -1 -1 -0 -0 -0 -0 -0 -0 -1 -1 -1 -1 -2 -2 -2 -1 -1 -1 -0 0
6 6 5 5 5 4 4 4 4 3 3 3 2 2 1 1 0 -0 -1 -2 -3 -4 -4 -3 -3 -2 -2 -1 -1 -1 -1 -2 -2 -2 -3 -3 -2 -2 -2 -2 -1 -1 -1
6 5 5 5 4 4 4 3 3 3 2 2 2 1 1 0 -0 -1 -2 -2 -3 -4 -5 -5 -4 -4 -3 -3 -2 -3 -3 -3 -3 -3 -3 -3 -3 -3 -2 -2 -2 -2 -1
5 5 5 4 4 4 3 3 3 2 2 2 1 1 0 -0 -1 -1 -2 -3 -3 -4 -5 -4 -4 -4 -4 -4 -4 -3 -3 -3 -3 -3 -3 -3 -3 -3 -3 -3 -2 -2 -2
5 5 4 4 3 3 3 2 2 2 1 1 1 0 -0 -1 -2 -2 -3 -3 -4 -4 -5 -5 -5 -5 -5 -5 -5 -4 -4 -4 -4 -4 -4 -4 -4 -4 -3 -3 -3 -2 -2
5 4 4 3 3 3 2 2 1 1 1 1 0 -0 -1 -2 -2 -3 -3 -4 -4 -4 -5 -5 -5 -5 -5 -5 -5 -5 -5 -5 -4 -4 -4 -4 -4 -4 -4 -3 -3 -3 -3
4 4 3 3 2 2 2 1 1 1 0 0 -0 -1 -1 -2 -3 -3 -4 -4 -5 -5 -5 -6 -6 -6 -6 -5 -5 -5 -5 -5 -5 -5 -5 -5 -4 -4 -4 -4 -4 -3 -3
4 3 3 2 2 2 1 1 0 -0 -0 -1 -1 -1 -2 -3 -3 -4 -5 -5 -5 -5 -6 -6 -6 -6 -6 -6 -6 -6 -6 -6 -6 -5 -5 -4 -4 -4 -4 -4 -4 -4 -4
3 3 2 2 2 1 1 0 -0 -1 -1 -1 -2 -2 -2 -3 -4 -4 -5 -5 -6 -6 -6 -6 -6 -6 -6 -6 -6 -6 -6 -6 -6 -6 -5 -5 -5 -5 -4 -4 -4 -4 -4
3 2 2 1 1 1 0 -0 -1 -1 -2 -2 -2 -3 -3 -4 -4 -5 -5 -5 -5 -6 -6 -6 -6 -6 -6 -6 -6 -6 -6 -6 -6 -6 -6 -6 -5 -5 -4 -4 -4 -4 -4
2 2 1 1 1 0 -0 -1 -1 -2 -2 -2 -3 -3 -4 -4 -5 -5 -6 -6 -6 -6 -6 -6 -6 -6 -6 -6 -6 -6 -6 -6 -6 -6 -6 -6 -5 -5 -5 -5 -5 -4 -4
1 1 1 0 0 -0 -1 -1 -2 -2 -2 -3 -3 -4 -5 -5 -5 -6 -6 -6 -6 -6 -6 -6 -6 -6 -6 -6 -6 -6 -6 -7 -7 -6 -6 -6 -6 -6 -6 -5 -5 -5 -5
1 0 0 -0 -1 -1 -1 -2 -2 -3 -4 -4 -4 -4 -5 -6 -6 -6 -6 -6 -6 -6 -6 -6 -6 -6 -6 -6 -7 -7 -7 -7 -7 -7 -7 -7 -7 -7 -6 -6 -5 -5 -5
Wind_Speed
6 6 6 6 6 7 6 6 6 6 7 7 8 8 9 10 11 12 13 14 15 16 18 19 19 19 19 19 19 19 18 18 18 18 18 18 19 19 19 19 19 19 18
7 6 5 5 6 6 6 6 6 5 5 6 6 8 9 10 11 12 14 14 15 16 17 18 19 19 19 19 19 19 19 19 19 19 19 19 19 19 20 21 21 21 21
7 5 4 3 4 5 4 4 4 4 3 4 4 7 8 9 11 12 13 13 14 14 15 16 16 17 17 18 18 18 19 19 19 19 19 19 20 20 21 21 22 22 23
5 4 3 2 3 2 1 1 1 2 3 3 4 4 6 8 10 11 12 11 12 11 12 13 14 15 15 16 17 18 18 19 19 19 20 20 20 20 21 22 23 22 23
3 3 2 1 0 1 0 0 0 1 2 4 4 5 5 5 7 9 8 9 9 10 10 11 12 13 15 17 17 18 18 19 19 20 20 21 21 21 21 22 23 24 24
4 4 3 2 2 2 1 1 1 1 2 3 5 5 6 6 4 4 5 6 8 9 9 10 11 12 15 17 18 19 19 20 20 21 21 21 22 22 22 23 23 23 24
5 5 3 3 3 2 2 2 1 2 2 2 3 5 5 5 4 4 3 4 6 8 9 10 11 13 15 17 18 20 21 22 22 22 22 22 23 23 24 24 24 24 25
5 5 4 3 3 2 3 3 2 1 2 2 2 3 5 6 4 4 4 4 4 6 8 11 14 15 16 16 18 21 22 23 23 23 23 24 24 24 25 25 25 25 25
6 6 5 4 3 2 2 1 1 1 1 2 1 1 2 4 5 4 4 4 5 4 5 11 14 17 18 18 18 19 22 23 24 24 24 25 25 25 25 26 26 26 26
6 6 6 5 3 2 1 1 1 1 1 2 2 2 3 3 4 5 4 4 5 6 7 8 11 16 18 18 19 22 23 24 24 25 25 25 25 26 26 27 27 27 27
5 6 5 5 3 2 1 1 1 1 2 2 2 2 3 3 5 6 7 5 5 5 6 7 9 13 17 18 18 20 23 24 25 25 25 26 26 27 27 27 27 27 27
2 4 4 4 3 2 1 1 1 2 2 3 3 3 3 4 4 5 7 8 9 5 6 7 7 9 14 16 18 22 24 25 26 26 27 27 27 27 27 27 27 27 28
1 1 2 1 1 1 2 1 1 2 3 3 4 4 4 5 5 5 7 8 7 6 5 5 5 9 14 15 16 23 24 26 27 27 28 28 28 28 28 28 28 28 28
2 1 0 0 1 2 2 2 2 3 3 4 5 5 5 5 5 5 5 6 9 6 4 6 5 7 11 14 19 25 21 25 27 27 28 28 28 28 28 28 28 28 28
2 2 1 1 2 3 3 2 3 4 4 5 6 6 5 5 5 6 6 6 6 10 9 5 4 4 10 16 21 20 19 24 27 28 28 28 28 28 28 28 28 28 28
2 2 2 2 3 3 4 3 4 5 5 6 5 6 7 6 6 6 6 6 7 9 11 5 6 7 10 16 22 21 20 27 27 27 27 27 27 27 27 28 28 27 27
3 3 3 3 4 5 4 4 5 6 7 7 7 7 8 8 6 6 6 7 7 8 14 12 6 7 9 12 14 18 20 18 19 25 26 27 27 26 26 26 27 27 27
3 3 3 4 5 5 5 6 7 7 7 8 8 8 9 8 8 7 7 8 8 8 11 16 10 8 9 10 12 13 13 16 16 23 26 27 26 26 26 25 25 25 25
4 4 4 5 6 6 7 7 7 8 8 9 9 9 10 9 10 8 9 9 9 10 10 13 14 9 8 9 10 11 12 11 15 20 23 23 24 25 25 25 25 24 23
4 5 5 6 7 7 7 8 8 9 9 9 10 10 10 10 11 10 10 10 10 11 11 12 13 10 9 8 8 9 10 8 10 12 17 20 23 25 25 25 24 23 22
5 5 6 6 7 7 7 8 8 9 9 10 10 10 11 13 16 14 12 10 9 10 10 11 12 11 9 7 7 7 11 10 9 10 10 11 11 10 12 19 21 22 22
5 5 6 7 8 8 13 17 14 9 9 9 10 10 10 13 17 21 23 22 19 14 11 11 12 13 11 9 9 10 11 12 11 5 6 8 7 9 9 7 18 22 22
5 7 7 7 9 11 17 19 20 13 9 9 10 10 10 11 17 10 17 22 21 23 22 16 15 14 13 11 11 13 12 13 13 7 8 11 8 10 9 12 21 22 22
6 7 8 8 9 12 18 20 21 13 9 10 10 10 11 11 12 14 12 13 13 14 16 13 12 14 13 13 12 13 13 12 10 8 7 9 8 9 9 8 19 21 21
6 7 7 8 9 12 18 21 21 10 9 10 10 10 11 11 19 23 16 13 13 12 17 21 21 20 22 21 16 9 8 9 10 7 4 5 6 7 7 8 11 17 17
7 7 8 8 10 11 17 21 21 9 9 10 9 10 17 18 22 24 15 12 14 12 11 11 13 14 12 13 17 9 6 8 8 6 4 3 5 4 5 4 4 4 6
Wind_Direction
205 213 223 231 240 243 244 254 264 272 277 282 282 278 280 283 284 284 285 291 297 301 304 305 305 304 303 301 299 297 295 293 290 288 286 283 278 274 272 270 267 265 264
206 207 218 226 238 243 246 250 259 267 276 280 283 283 281 284 284 284 285 290 295 300 304 306 306 306 304 303 301 300 299 297 295 292 289 287 286 285 279 273 269 266 264
204 203 211 231 247 251 253 263 273 273 279 284 284 288 285 284 283 285 288 290 293 299 305 310 313 313 311 310 308 306 305 303 300 297 294 290 287 285 284 283 278 271 266
200 192 199 229 250 242 237 250 266 288 289 293 292 290 287 286 284 286 290 292 296 299 306 315 322 325 324 321 317 314 311 308 304 300 296 293 290 288 285 283 282 280 275
171 165 165 200 162 109 58 335 350 281 296 305 297 288 282 277 283 292 294 298 303 306 311 318 325 331 331 328 324 320 315 312 308 304 300 296 293 290 287 285 283 281 279
107 114 105 85 83 84 49 28 343 316 293 304 303 297 287 288 293 291 294 304 312 318 321 322 325 329 329 328 325 323 317 312 309 305 302 298 295 291 288 286 284 282 280
93 99 94 77 73 79 60 33 18 354 336 342 340 321 311 310 314 294 293 308 316 321 325 325 323 322 320 320 320 318 315 310 306 303 300 296 293 290 287 284 282 280 279
85 93 93 86 76 77 54 44 46 16 339 9 11 339 334 333 334 319 319 308 306 321 322 321 320 315 310 307 307 312 312 308 304 300 297 295 292 289 287 285 282 280 278
79 85 90 91 82 88 72 38 66 89 309 319 262 225 316 298 304 301 297 291 297 306 306 308 305 301 301 299 298 303 305 304 302 299 296 293 291 288 286 284 282 280 279
71 80 88 90 86 84 64 3 68 181 197 282 299 247 231 235 277 304 298 286 287 288 289 294 293 293 293 292 292 297 301 301 299 297 295 294 291 289 286 284 283 281 280
64 73 83 83 76 69 54 9 352 249 212 228 242 255 263 256 235 257 287 294 292 264 270 274 281 284 286 287 288 293 298 299 297 296 295 294 293 291 288 286 285 284 283
55 59 76 77 71 58 19 326 286 271 247 243 244 232 231 243 244 246 270 290 294 281 271 266 270 277 284 288 290 297 300 299 297 296 294 293 292 290 289 287 285 284 283
98 44 59 55 38 354 323 306 283 280 261 254 253 248 241 241 243 250 270 285 286 287 273 263 260 278 288 291 297 303 302 299 297 295 293 292 290 289 287 285 284 283 282
186 192 127 332 315 312 306 297 275 274 263 261 263 259 256 255 247 245 254 282 297 288 261 264 272 270 283 295 299 302 299 298 297 295 293 291 289 287 285 283 281 280 280
192 192 221 277 293 293 287 281 269 274 272 263 261 262 257 256 252 250 248 247 266 293 295 255 258 270 288 295 296 296 290 294 296 295 293 291 289 288 286 284 282 279 278
193 206 244 262 277 283 282 274 272 271 270 268 262 261 260 259 257 253 250 249 243 265 284 263 261 273 284 291 294 296 294 296 298 297 294 292 289 287 285 283 282 281 279
209 230 248 263 273 278 277 274 272 274 271 273 271 266 264 263 261 259 253 252 252 255 277 285 266 267 268 275 285 288 289 288 288 292 293 292 289 287 285 283 282 280 279
226 237 250 263 270 272 272 269 274 276 270 272 271 269 269 270 262 260 258 256 258 253 267 284 286 276 267 269 274 278 285 287 284 289 291 291 290 289 287 285 283 281 279
241 250 254 262 268 271 272 268 265 268 265 263 265 265 267 266 268 265 260 262 264 267 263 275 285 281 274 273 276 277 276 278 283 287 290 291 291 290 288 287 286 285 284
243 255 258 262 267 270 271 270 268 265 264 263 261 259 260 259 263 266 269 264 264 266 267 272 282 285 279 270 269 279 286 276 278 283 285 285 287 288 289 290 290 289 289
248 255 265 271 272 273 269 266 262 260 260 264 263 258 259 267 273 276 279 272 266 270 275 279 284 286 282 278 275 277 287 288 278 272 274 275 277 275 278 282 285 285 283
260 263 265 269 275 278 287 292 292 274 265 265 269 267 265 274 281 286 288 290 288 284 282 280 283 283 284 279 280 282 286 289 289 254 258 274 268 271 269 259 274 278 278
262 268 268 268 270 277 291 295 295 293 275 269 269 272 278 279 288 279 285 288 285 283 282 281 281 282 282 279 279 281 279 279 281 278 279 283 273 273 271 272 278 279 279
259 264 268 269 271 280 293 298 299 294 278 271 267 266 270 273 273 280 272 270 265 267 271 274 269 271 272 273 269 274 282 285 279 271 260 276 277 274 276 268 278 280 280
263 263 265 269 273 282 293 298 298 285 277 273 269 267 272 270 279 287 287 281 278 272 278 279 278 280 284 290 292 292 291 293 293 285 249 256 275 280 279 274 273 280 284
264 271 272 269 270 276 288 296 296 285 281 280 274 267 278 284 288 291 288 281 282 282 276 276 279 283 286 289 293 288 281 284 289 289 261 255 275 289 290 274 278 290 293
Height
1555 1555 1555 1555 1554 1554 1553 1553 1552 1551 1550 1549 1548 1546 1545 1543 1542 1541 1539 1538 1537 1535 1534 1533 1532 1531 1531 1530 1529 1529 1528 1527 1527 1526 1525 1525 1525 1525 1524 1524 1524 1524 1524
1553 1553 1553 1553 1552 1552 1551 1550 1549 1548 1547 1546 1544 1543 1541 1540 1538 1537 1535 1534 1533 1531 1530 1528 1527 1526 1525 1525 1524 1524 1523 1522 1521 1521 1520 1520 1519 1519 1519 1519 1519 1519 1519
1551 1551 1551 1550 1550 1549 1548 1547 1546 1545 1544 1542 1541 1539 1537 1536 1534 1533 1531 1530 1528 1527 1526 1524 1523 1521 1520 1519 1519 1518 1517 1516 1516 1515 1515 1514 1514 1513 1513 1513 1514 1514 1514
1548 1548 1548 1548 1547 1546 1545 1544 1543 1541 1540 1538 1536 1535 1533 1531 1530 1528 1527 1526 1524 1523 1522 1520 1518 1517 1516 1514 1513 1513 1512 1511 1510 1509 1509 1508 1508 1507 1507 1507 1507 1507 1507
1546 1545 1545 1544 1544 1543 1542 1540 1539 1538 1536 1534 1532 1530 1529 1527 1525 1524 1523 1522 1520 1519 1518 1516 1515 1513 1512 1510 1509 1507 1506 1505 1504 1503 1503 1502 1501 1501 1500 1500 1500 1500 1500
1543 1542 1542 1541 1540 1539 1538 1537 1536 1534 1532 1530 1528 1526 1524 1522 1521 1519 1518 1518 1517 1516 1514 1513 1511 1509 1507 1506 1504 1502 1501 1499 1498 1497 1496 1495 1495 1494 1494 1493 1493 1493 1493
1540 1539 1539 1538 1537 1536 1535 1534 1532 1531 1529 1526 1524 1521 1519 1517 1516 1514 1514 1514 1513 1512 1510 1508 1506 1505 1503 1501 1499 1497 1495 1493 1492 1490 1489 1488 1488 1487 1487 1486 1486 1485 1485
1537 1536 1536 1535 1534 1533 1532 1530 1529 1528 1526 1524 1521 1517 1514 1512 1510 1511 1510 1509 1508 1507 1505 1503 1502 1499 1497 1495 1493 1490 1488 1486 1484 1483 1482 1481 1480 1480 1479 1479 1478 1478 1478
1534 1534 1533 1532 1531 1530 1529 1527 1526 1525 1523 1521 1519 1518 1515 1510 1506 1502 1503 1502 1501 1501 1499 1497 1495 1493 1491 1488 1485 1483 1481 1478 1477 1475 1474 1473 1472 1472 1471 1471 1471 1470 1470
1532 1531 1530 1529 1528 1527 1526 1525 1523 1521 1520 1518 1517 1515 1514 1510 1506 1499 1496 1496 1495 1493 1492 1490 1488 1486 1484 1481 1478 1475 1473 1470 1469 1467 1466 1465 1464 1463 1463 1462 1462 1462 1462
1529 1529 1528 1527 1526 1524 1523 1521 1520 1518 1516 1514 1513 1511 1509 1507 1504 1499 1490 1487 1486 1485 1484 1482 1480 1478 1476 1473 1470 1467 1465 1462 1460 1459 1457 1456 1455 1454 1454 1453 1453 1452 1452
1527 1526 1525 1524 1523 1521 1520 1518 1516 1514 1513 1511 1509 1506 1504 1502 1499 1495 1488 1481 1477 1476 1475 1474 1472 1470 1467 1465 1462 1459 1456 1454 1452 1450 1448 1447 1446 1445 1444 1443 1443 1443 1443
1524 1523 1522 1521 1519 1518 1516 1514 1512 1510 1508 1506 1504 1502 1499 1497 1494 1490 1485 1478 1472 1467 1465 1465 1464 1462 1460 1457 1453 1450 1447 1445 1442 1440 1439 1437 1436 1435 1434 1433 1433 1433 1433
1520 1519 1518 1517 1515 1514 1512 1510 1508 1505 1503 1501 1498 1496 1493 1491 1488 1485 1481 1475 1466 1460 1458 1456 1455 1455 1452 1449 1445 1442 1438 1436 1433 1431 1429 1428 1426 1425 1424 1424 1423 1423 1423
1517 1516 1514 1513 1511 1509 1507 1505 1503 1500 1498 1495 1493 1490 1487 1485 1482 1479 1476 1472 1467 1456 1449 1448 1447 1446 1444 1441 1438 1434 1430 1427 1424 1422 1420 1418 1417 1416 1415 1414 1414 1413 1413
1513 1512 1510 1509 1507 1505 1502 1500 1497 1495 1492 1489 1487 1483 1480 1478 1475 1472 1469 1466 1462 1456 1446 1440 1440 1439 1436 1433 1430 1427 1423 1420 1417 1414 1411 1409 1408 1407 1406 1405 1404 1404 1404
1509 1507 1506 1504 1502 1499 1497 1494 1491 1489 1486 1483 1480 1477 1474 1471 1467 1464 1461 1458 1455 1450 1441 1433 1433 1431 1428 1426 1422 1420 1416 1413 1409 1407 1404 1401 1400 1398 1397 1396 1395 1395 1394
1504 1503 1501 1499 1496 1494 1491 1488 1485 1482 1479 1476 1473 1470 1466 1463 1459 1456 1453 1450 1446 1443 1437 1428 1424 1423 1421 1418 1415 1412 1409 1406 1402 1399 1396 1394 1392 1390 1389 1388 1387 1386 1386
1499 1498 1496 1493 1491 1488 1485 1482 1479 1476 1472 1469 1466 1462 1459 1455 1451 1448 1445 1441 1438 1434 1430 1424 1417 1415 1413 1411 1407 1404 1401 1398 1395 1392 1389 1386 1384 1382 1381 1380 1379 1378 1377
1494 1492 1490 1488 1485 1482 1479 1476 1472 1468 1465 1462 1458 1455 1451 1447 1443 1440 1436 1433 1430 1426 1422 1418 1412 1408 1406 1404 1401 1397 1393 1390 1387 1385 1381 1379 1377 1375 1373 1372 1370 1369 1369
1488 1486 1484 1482 1479 1476 1472 1468 1464 1460 1457 1453 1450 1447 1443 1439 1435 1432 1429 1426 1423 1419 1415 1411 1406 1402 1399 1397 1394 1391 1386 1382 1378 1377 1373 1371 1369 1366 1365 1363 1362 1361 1360
1483 1480 1478 1475 1472 1469 1466 1462 1458 1453 1449 1445 1441 1438 1434 1431 1428 1424 1422 1419 1416 1412 1408 1404 1400 1396 1392 1390 1387 1384 1380 1375 1370 1369 1366 1362 1362 1358 1357 1355 1354 1353 1352
1476 1474 1471 1468 1465 1462 1459 1455 1450 1446 1441 1437 1433 1429 1425 1422 1419 1416 1412 1409 1406 1404 1402 1399 1393 1389 1386 1384 1381 1376 1373 1369 1364 1362 1360 1355 1354 1351 1349 1347 1346 1345 1345
1470 1467 1464 1461 1458 1455 1451 1447 1442 1437 1432 1428 1425 1421 1417 1413 1410 1407 1402 1399 1396 1394 1393 1390 1386 1382 1379 1376 1374 1370 1366 1362 1358 1356 1354 1349 1346 1344 1342 1340 1339 1338 1337
1463 1460 1457 1454 1450 1446 1443 1439 1434 1428 1423 1419 1416 1413 1409 1405 1402 1399 1396 1391 1387 1385 1384 1381 1378 1375 1373 1370 1368 1364 1360 1356 1351 1348 1347 1344 1340 1337 1335 1332 1332 1331 1330
1455 1452 1449 1446 1442 1438 1434 1430 1426 1420 1414 1409 1406 1403 1401 1398 1394 1392 1389 1384 1380 1377 1375 1371 1369 1367 1364 1362 1360 1357 1354 1350 1346 1342 1340 1339 1335 1334 1329 1327 1327 1326 1325